Time,TemperatureF,DewpointF,PressureIn,WindDirection,WindDirectionDegrees,WindSpeedMPH,WindSpeedGustMPH,Humidity,HourlyPrecipIn,Conditions,Clouds,dailyrainin,SoftwareType,DateUTC
2013-07-25 00:02:00,58.0,54.0,30.01,ESE,102,0.0,0.0,85,0.00,,,0.00,,2013-07-25 04:02:00,
2013-07-25 00:22:00,58.0,53.0,30.01,ESE,104,0.0,0.0,84,0.00,,,0.00,,2013-07-25 04:22:00,
2013-07-25 00:33:00,58.0,54.0,30.01,ESE,104,0.0,0.0,85,0.00,,,0.00,,2013-07-25 04:33:00,
2013-07-25 00:43:00,57.0,53.0,30.02,ESE,104,0.0,0.0,86,0.00,,,0.00,,2013-07-25 04:43:00,
2013-07-25 01:02:00,57.0,53.0,30.02,ESE,104,0.0,0.0,87,0.00,,,0.00,,2013-07-25 05:02:00,
2013-07-25 01:22:00,56.0,52.0,30.02,ESE,104,0.0,0.0,88,0.00,,,0.00,,2013-07-25 05:22:00,
2013-07-25 01:32:00,55.0,52.0,30.02,ESE,104,0.0,0.0,90,0.00,,,0.00,,2013-07-25 05:32:00,
2013-07-25 01:43:00,55.0,52.0,30.02,ESE,104,0.0,0.0,91,0.00,,,0.00,,2013-07-25 05:43:00,
2013-07-25 01:52:00,55.0,52.0,30.02,ESE,104,0.0,0.0,91,0.00,,,0.00,,2013-07-25 05:52:00,
2013-07-25 02:02:00,54.0,52.0,30.01,ESE,104,0.0,0.0,92,0.00,,,0.00,,2013-07-25 06:02:00,
2013-07-25 02:12:00,54.0,52.0,30.01,ESE,104,0.0,0.0,92,0.00,,,0.00,,2013-07-25 06:12:00,
2013-07-25 02:32:00,54.0,52.0,30.01,ESE,104,0.0,0.0,92,0.00,,,0.00,,2013-07-25 06:32:00,
2013-07-25 02:42:00,53.0,51.0,30.01,ESE,104,0.0,0.0,93,0.00,,,0.00,,2013-07-25 06:42:00,
2013-07-25 02:52:00,53.0,51.0,30.02,ESE,104,0.0,0.0,93,0.00,,,0.00,,2013-07-25 06:52:00,
2013-07-25 03:02:00,53.0,51.0,30.02,ESE,104,0.0,0.0,93,0.00,,,0.00,,2013-07-25 07:02:00,
2013-07-25 03:12:00,53.0,51.0,30.02,ESE,104,0.0,0.0,93,0.00,,,0.00,,2013-07-25 07:12:00,
2013-07-25 03:22:00,53.0,51.0,30.02,ESE,104,0.0,0.0,93,0.00,,,0.00,,2013-07-25 07:22:00,
2013-07-25 03:33:00,53.0,51.0,30.02,ESE,104,0.0,0.0,93,0.00,,,0.00,,2013-07-25 07:33:00,
2013-07-25 03:43:00,52.0,50.0,30.02,ESE,104,0.0,0.0,94,0.00,,,0.00,,2013-07-25 07:43:00,
2013-07-25 03:53:00,52.0,50.0,30.02,ESE,104,0.0,0.0,94,0.00,,,0.00,,2013-07-25 07:53:00,
2013-07-25 04:02:00,52.0,50.0,30.02,ESE,104,0.0,0.0,94,0.00,,,0.00,,2013-07-25 08:02:00,
2013-07-25 04:12:00,52.0,50.0,30.03,ESE,103,0.0,1.0,94,0.00,,,0.00,,2013-07-25 08:12:00,
2013-07-25 04:22:00,52.0,50.0,30.03,ESE,103,0.0,1.0,94,0.00,,,0.00,,2013-07-25 08:22:00,
2013-07-25 04:32:00,52.0,50.0,30.03,ESE,103,0.0,0.0,94,0.00,,,0.00,,2013-07-25 08:32:00,
2013-07-25 04:44:00,52.0,50.0,30.03,ESE,103,0.0,0.0,94,0.00,,,0.00,,2013-07-25 08:44:00,
2013-07-25 04:52:00,51.0,49.0,30.03,ESE,103,0.0,0.0,94,0.00,,,0.00,,2013-07-25 08:52:00,
2013-07-25 05:02:00,51.0,49.0,30.03,ESE,103,0.0,0.0,94,0.00,,,0.00,,2013-07-25 09:02:00,
2013-07-25 05:12:00,51.0,50.0,30.03,ESE,103,0.0,0.0,95,0.00,,,0.00,,2013-07-25 09:12:00,
2013-07-25 05:22:00,51.0,50.0,30.03,ESE,103,0.0,0.0,95,0.00,,,0.00,,2013-07-25 09:22:00,
2013-07-25 05:33:00,51.0,49.0,30.04,ESE,103,0.0,0.0,94,0.00,,,0.00,,2013-07-25 09:33:00,
2013-07-25 05:43:00,50.0,49.0,30.04,ESE,103,0.0,0.0,95,0.00,,,0.00,,2013-07-25 09:43:00,
2013-07-25 05:52:00,50.0,49.0,30.04,ESE,103,0.0,0.0,95,0.00,,,0.00,,2013-07-25 09:52:00,
2013-07-25 06:02:00,50.0,49.0,30.04,ESE,103,0.0,0.0,95,0.00,,,0.00,,2013-07-25 10:02:00,
2013-07-25 06:22:00,50.0,49.0,30.04,ESE,103,0.0,0.0,95,0.00,,,0.00,,2013-07-25 10:22:00,
2013-07-25 06:32:00,50.0,49.0,30.05,ESE,103,0.0,0.0,95,0.00,,,0.00,,2013-07-25 10:32:00,
2013-07-25 07:02:00,50.0,49.0,30.05,ESE,103,0.0,0.0,96,0.00,,,0.00,,2013-07-25 11:02:00,
2013-07-25 07:22:00,50.0,49.0,30.06,North,355,0.0,1.0,96,0.00,,,0.00,,2013-07-25 11:22:00,
2013-07-25 07:32:00,50.0,49.0,30.06,North,355,0.0,1.0,96,0.00,,,0.00,,2013-07-25 11:32:00,
2013-07-25 07:43:00,51.0,50.0,30.06,North,355,0.0,0.0,96,0.00,,,0.00,,2013-07-25 11:43:00,
2013-07-25 08:03:00,52.0,51.0,30.07,North,355,0.0,0.0,97,0.00,,,0.00,,2013-07-25 12:03:00,
2013-07-25 08:22:00,54.0,53.0,30.07,North,355,0.0,0.0,97,0.00,,,0.00,,2013-07-25 12:22:00,
2013-07-25 08:32:00,56.0,55.0,30.07,North,355,0.0,0.0,97,0.00,,,0.00,,2013-07-25 12:32:00,
2013-07-25 08:45:00,58.0,57.0,30.07,North,355,0.0,0.0,97,0.00,,,0.00,,2013-07-25 12:45:00,
2013-07-25 09:22:00,62.0,58.0,30.06,ESE,108,0.0,0.0,88,0.00,,,0.00,,2013-07-25 13:22:00,
2013-07-25 09:33:00,65.0,59.0,30.07,ESE,108,0.0,0.0,81,0.00,,,0.00,,2013-07-25 13:33:00,
2013-07-25 10:02:00,67.0,59.0,30.07,NE,47,0.0,0.0,75,0.00,,,0.00,,2013-07-25 14:02:00,
2013-07-25 10:22:00,69.0,58.0,30.07,NE,48,0.0,0.0,69,0.00,,,0.00,,2013-07-25 14:22:00,
2013-07-25 10:33:00,70.0,58.0,30.07,SE,129,0.0,0.0,65,0.00,,,0.00,,2013-07-25 14:33:00,
2013-07-25 10:43:00,71.0,58.0,30.08,East,81,0.0,1.0,64,0.00,,,0.00,,2013-07-25 14:43:00,
2013-07-25 10:53:00,71.0,58.0,30.08,East,81,0.0,1.0,64,0.00,,,0.00,,2013-07-25 14:53:00,
2013-07-25 11:02:00,72.0,57.0,30.08,East,81,0.0,1.0,59,0.00,,,0.00,,2013-07-25 15:02:00,
2013-07-25 11:12:00,72.0,58.0,30.08,NW,304,0.0,3.0,62,0.00,,,0.00,,2013-07-25 15:12:00,
2013-07-25 11:22:00,72.0,58.0,30.08,NW,304,0.0,3.0,62,0.00,,,0.00,,2013-07-25 15:22:00,
2013-07-25 11:32:00,72.0,57.0,30.09,SE,132,0.0,2.0,60,0.00,,,0.00,,2013-07-25 15:32:00,
2013-07-25 11:44:00,73.0,56.0,30.09,WNW,287,0.0,5.0,56,0.00,,,0.00,,2013-07-25 15:44:00,
2013-07-25 11:52:00,73.0,56.0,30.09,WNW,287,0.0,5.0,56,0.00,,,0.00,,2013-07-25 15:52:00,
2013-07-25 12:02:00,73.0,56.0,30.09,NW,321,0.0,2.0,56,0.00,,,0.00,,2013-07-25 16:02:00,
2013-07-25 12:33:00,73.0,55.0,30.08,SSE,154,1.0,5.0,53,0.00,,,0.00,,2013-07-25 16:33:00,
2013-07-25 12:45:00,75.0,56.0,30.08,SSE,157,0.0,5.0,51,0.00,,,0.00,,2013-07-25 16:45:00,
2013-07-25 13:03:00,73.0,55.0,30.08,NW,325,0.0,1.0,53,0.00,,,0.00,,2013-07-25 17:03:00,
2013-07-25 13:22:00,74.0,56.0,30.08,West,275,0.0,2.0,54,0.00,,,0.00,,2013-07-25 17:22:00,
2013-07-25 13:32:00,74.0,57.0,30.08,SSW,198,0.0,3.0,56,0.00,,,0.00,,2013-07-25 17:32:00,
2013-07-25 14:02:00,73.0,56.0,30.07,ENE,74,1.0,5.0,56,0.00,,,0.00,,2013-07-25 18:02:00,
2013-07-25 14:22:00,74.0,56.0,30.07,ENE,59,0.0,6.0,53,0.00,,,0.00,,2013-07-25 18:22:00,
2013-07-25 14:33:00,74.0,56.0,30.07,South,186,0.0,2.0,54,0.00,,,0.00,,2013-07-25 18:33:00,
2013-07-25 14:43:00,74.0,57.0,30.08,West,267,0.0,1.0,56,0.00,,,0.00,,2013-07-25 18:43:00,
2013-07-25 15:03:00,76.0,58.0,30.08,NNW,348,0.0,4.0,54,0.00,,,0.00,,2013-07-25 19:03:00,
2013-07-25 15:12:00,75.0,55.0,30.07,ENE,78,1.0,3.0,50,0.00,,,0.00,,2013-07-25 19:12:00,
2013-07-25 15:33:00,74.0,54.0,30.08,West,277,0.0,3.0,50,0.00,,,0.00,,2013-07-25 19:33:00,
2013-07-25 15:43:00,74.0,54.0,30.08,West,277,0.0,3.0,50,0.00,,,0.00,,2013-07-25 19:43:00,
2013-07-25 16:02:00,76.0,57.0,30.07,WSW,247,0.0,4.0,51,0.00,,,0.00,,2013-07-25 20:02:00,
2013-07-25 16:12:00,77.0,56.0,30.07,WSW,243,1.0,4.0,49,0.00,,,0.00,,2013-07-25 20:12:00,
2013-07-25 16:32:00,77.0,55.0,30.07,West,270,0.0,6.0,47,0.00,,,0.00,,2013-07-25 20:32:00,
2013-07-25 16:43:00,77.0,55.0,30.07,WNW,284,0.0,2.0,47,0.00,,,0.00,,2013-07-25 20:43:00,
2013-07-25 17:03:00,77.0,57.0,30.06,NNW,336,0.0,1.0,50,0.00,,,0.00,,2013-07-25 21:03:00,
2013-07-25 17:12:00,77.0,57.0,30.06,NNW,336,0.0,1.0,50,0.00,,,0.00,,2013-07-25 21:12:00,
2013-07-25 17:22:00,77.0,57.0,30.06,NNW,336,0.0,1.0,50,0.00,,,0.00,,2013-07-25 21:22:00,
2013-07-25 17:33:00,77.0,56.0,30.05,NW,317,0.0,2.0,49,0.00,,,0.00,,2013-07-25 21:33:00,
2013-07-25 17:44:00,78.0,57.0,30.05,WNW,299,0.0,3.0,49,0.00,,,0.00,,2013-07-25 21:44:00,
2013-07-25 17:52:00,78.0,57.0,30.05,WNW,299,0.0,3.0,49,0.00,,,0.00,,2013-07-25 21:52:00,
2013-07-25 18:02:00,79.0,56.0,30.05,WNW,302,0.0,1.0,45,0.00,,,0.00,,2013-07-25 22:02:00,
2013-07-25 18:12:00,79.0,57.0,30.05,NNE,15,0.0,1.0,47,0.00,,,0.00,,2013-07-25 22:12:00,
2013-07-25 18:32:00,78.0,55.0,30.05,West,273,1.0,4.0,45,0.00,,,0.00,,2013-07-25 22:32:00,
2013-07-25 18:43:00,77.0,55.0,30.04,SSE,161,1.0,5.0,47,0.00,,,0.00,,2013-07-25 22:43:00,
2013-07-25 18:52:00,77.0,55.0,30.04,SSE,161,1.0,5.0,47,0.00,,,0.00,,2013-07-25 22:52:00,
2013-07-25 19:02:00,76.0,54.0,30.04,ESE,113,0.0,2.0,47,0.00,,,0.00,,2013-07-25 23:02:00,
2013-07-25 19:32:00,76.0,57.0,30.04,East,85,0.0,3.0,52,0.00,,,0.00,,2013-07-25 23:32:00,
2013-07-25 19:43:00,76.0,55.0,30.04,East,85,0.0,0.0,49,0.00,,,0.00,,2013-07-25 23:43:00,
2013-07-25 19:52:00,76.0,55.0,30.04,East,85,0.0,0.0,49,0.00,,,0.00,,2013-07-25 23:52:00,
2013-07-25 20:02:00,76.0,58.0,30.05,East,86,0.0,0.0,54,0.00,,,0.00,,2013-07-26 00:02:00,
2013-07-25 20:12:00,76.0,58.0,30.05,East,86,0.0,0.0,53,0.00,,,0.00,,2013-07-26 00:12:00,
2013-07-25 20:33:00,74.0,57.0,30.05,East,88,0.0,0.0,56,0.00,,,0.00,,2013-07-26 00:33:00,
2013-07-25 20:43:00,72.0,57.0,30.05,East,88,0.0,0.0,60,0.00,,,0.00,,2013-07-26 00:43:00,
2013-07-25 20:52:00,72.0,57.0,30.05,East,88,0.0,0.0,60,0.00,,,0.00,,2013-07-26 00:52:00,
2013-07-25 21:02:00,70.0,57.0,30.05,East,87,0.0,0.0,63,0.00,,,0.00,,2013-07-26 01:02:00,
2013-07-25 21:12:00,69.0,57.0,30.05,East,87,0.0,0.0,65,0.00,,,0.00,,2013-07-26 01:12:00,
2013-07-25 21:22:00,69.0,57.0,30.05,East,87,0.0,0.0,65,0.00,,,0.00,,2013-07-26 01:22:00,
2013-07-25 21:32:00,67.0,56.0,30.05,East,88,0.0,0.0,68,0.00,,,0.00,,2013-07-26 01:32:00,
2013-07-25 21:43:00,66.0,56.0,30.04,East,88,0.0,0.0,70,0.00,,,0.00,,2013-07-26 01:43:00,
2013-07-25 21:52:00,66.0,56.0,30.04,East,88,0.0,0.0,70,0.00,,,0.00,,2013-07-26 01:52:00,
2013-07-25 22:02:00,65.0,55.0,30.05,East,88,0.0,0.0,71,0.00,,,0.00,,2013-07-26 02:02:00,
2013-07-25 22:12:00,65.0,56.0,30.05,East,88,0.0,0.0,73,0.00,,,0.00,,2013-07-26 02:12:00,
2013-07-25 22:32:00,64.0,57.0,30.06,East,88,0.0,0.0,77,0.00,,,0.00,,2013-07-26 02:32:00,
2013-07-25 22:43:00,63.0,55.0,30.06,East,88,0.0,0.0,75,0.00,,,0.00,,2013-07-26 02:43:00,
2013-07-25 23:02:00,62.0,55.0,30.06,East,88,0.0,0.0,77,0.00,,,0.00,,2013-07-26 03:02:00,
2013-07-25 23:22:00,61.0,55.0,30.06,East,88,0.0,0.0,81,0.00,,,0.00,,2013-07-26 03:22:00,
2013-07-25 23:32:00,61.0,56.0,30.06,East,88,0.0,0.0,84,0.00,,,0.00,,2013-07-26 03:32:00,